Location: Boiro
(42.6475°N, 8.8834°W)
Time: 12:55:26
(UTC+01:00)

Vanguard 2 Rocket - Pass Details

Date: 11 December 2021
Orbit: 554 x 3325 km, 32.9° (Epoch: 19 January)

Event Time Altitude Azimuth Distance (km) Brightness Sun altitude
Rises 18:19:31 0° 239° (WSW) 2,773 12.7 -3.6°
Reaches altitude 10° 18:21:45 10° 226° (SW) 1,981 10.3 -4.0°
Maximum altitude 18:25:31 27° 167° (SSE) 1,397 8.1 -4.6°
Drops below altitude 10° 18:30:41 10° 111° (ESE) 2,779 9.0 -5.4°
Sets 18:34:27 0° 101° (E) 4,174 9.8 -6.1°
